Flag for Germany Weather past 2 weeks in Hamburg, Hamburg, Germany

Now
55 °F

Passing clouds.


Feels Like: 54 °F
Forecast: 38 / 60 °F
Wind: 7 mph from Northwest

Location: Hamburg-Fuhlsbuettel


UV Index: 3 (Moderate)

Visibility: N/A


Pressure: 30.39 "Hg

Humidity: 36%

Dew point: 28 °F

Location of HamburgLocation

Historic Weather in Hamburg

°F

Hamburg temperature yesterday

Maximum temperature yesterday: 54 °F (at 2:20 PM)
Minimum temperature yesterday: 36 °F (at 11:50 PM)
Average temperature yesterday: 46 °F

Past Weeks' High & Low Weather Summary

 TemperatureHumidityPressure
High66 °F (Apr 2, 4:50 PM)100% (Apr 3, 2:50 AM)30.45 "Hg (Apr 3, 2:50 AM)
Low30 °F (Apr 16, 3:50 AM)29% (Apr 16, 5:20 PM)29.65 "Hg (Apr 3, 4:20 AM)
Average49 °F81%29.96 "Hg
* Reported Apr 1 5:20 PM — Apr 16 5:50 PM, Hamburg, Weather by CustomWeather, © 2014

Note: Actual official high and low records may vary slightly from our data, if they occured in-between our weather recording intervals... More about our weather records

Advertising

Historic Weather Conditions — Data for Previous 24 hours

 ConditionsComfort  
Time TempWeatherWind HumidityBarometerVisibility
5:50 PM
Apr 16
55 °FPassing clouds.7 mph36%30.39 "HgN/A
5:20 PM57 °FPassing clouds.7 mph29%30.39 "HgN/A
4:50 PM55 °FPassing clouds.7 mph33%30.39 "HgN/A
4:20 PM55 °FSunny.6 mph36%30.39 "Hg10 mi
3:50 PM55 °FPassing clouds.9 mph36%30.42 "HgN/A
3:20 PM55 °FPassing clouds.7 mph38%30.42 "HgN/A
2:50 PM55 °FSunny.5 mph41%30.42 "Hg10 mi
2:20 PM55 °FSunny.3 mph33%30.42 "Hg10 mi
1:50 PM55 °FSunny.5 mph38%30.42 "Hg10 mi
1:20 PM54 °FSunny.2 mph41%30.45 "Hg10 mi
12:50 PM55 °FPassing clouds.5 mph44%30.45 "HgN/A
12:20 PM54 °FPassing clouds.2 mph41%30.45 "HgN/A
11:50 AM52 °FPassing clouds.5 mph44%30.45 "HgN/A
11:20 AM52 °FSunny.6 mph50%30.45 "Hg10 mi
10:50 AM50 °FSunny.3 mph50%30.45 "Hg10 mi
10:20 AM48 °FSunny.2 mph54%30.45 "Hg10 mi
9:50 AM48 °FSunny.2 mph54%30.45 "Hg10 mi
9:20 AM46 °FSunny.2 mph66%30.45 "Hg10 mi
8:50 AM43 °FSunny.1 mph71%30.45 "Hg10 mi
8:20 AM39 °FSunny.2 mph75%30.45 "Hg10 mi
7:50 AM34 °FSunny.2 mph87%30.45 "Hg10 mi
7:20 AM32 °FSunny.3 mph93%30.45 "Hg10 mi
6:50 AM30 °FClear.1 mph100%30.42 "Hg10 mi
6:20 AM30 °FClear.No wind93%30.42 "Hg10 mi
5:50 AM30 °FClear.2 mph93%30.42 "Hg10 mi
5:20 AM30 °FClear.2 mph93%30.42 "Hg10 mi
4:50 AM30 °FClear.2 mph100%30.39 "Hg10 mi
4:20 AM30 °FClear.3 mph93%30.39 "Hg10 mi
3:50 AM30 °FClear.5 mph93%30.39 "Hg10 mi
3:20 AM32 °FClear.2 mph93%30.36 "Hg10 mi
2:50 AM32 °FClear.3 mph93%30.36 "Hg10 mi
1:20 AM36 °FClear.2 mph81%30.36 "Hg10 mi
12:20 AM37 °FClear.5 mph75%30.36 "Hg10 mi
11:50 PM
Apr 15
36 °FClear.5 mph87%30.33 "Hg10 mi
11:20 PM37 °FPassing clouds.5 mph75%30.33 "HgN/A
10:50 PM41 °FClear.3 mph61%30.33 "Hg10 mi
10:20 PM41 °FClear.6 mph61%30.30 "Hg10 mi
9:50 PM43 °FPassing clouds.5 mph57%30.30 "HgN/A
9:20 PM43 °FClear.5 mph57%30.30 "Hg10 mi
8:50 PM45 °FPassing clouds.6 mph53%30.27 "HgN/A
8:20 PM48 °FPassing clouds.8 mph46%30.27 "HgN/A
7:50 PM48 °FPassing clouds.10 mph46%30.24 "HgN/A
7:20 PM50 °FPassing clouds.9 mph40%30.24 "HgN/A
Weather by CustomWeather, © 2014

See weather overview